Location: Brusselsch Zeekanaal
(50.8667°N, 4.3667°E)
Time: 10:29:44
(UTC+00:00)

USA 267 - Pass Details

Date: 08 November 2025
Orbit: 1100 x 1108 km, 123.0° (Epoch: 21 November)

Event Time Altitude Azimuth Distance (km) Brightness Sun altitude
Rises 03:11:09 0° 57° (ENE) 3,924 7.1 -33.9°
Reaches altitude 10° 03:13:40 10° 61° (ENE) 2,963 6.3 -33.5°
Maximum altitude 03:20:10 65° 143° (SE) 1,201 3.4 -32.6°
Enters shadow 03:20:18 65° 150° (SSE) 1,202 3.4 -32.5°
